ROMMA est une association bénévole à but non lucratif. Votre soutien est indispensable : ADHERER à ROMMA ou FAIRE un DON

Le Versoud - (38, Isère)

Vallée du Grésivaudan (220 m)   Longitude: 05° 51' 44" E   Latitude: 45° 13' 06" N Station partenaire n°6
 

Détail journalier du     <<     >>

Température Humidité Pression Vent Dir Rafale Dir. rafale Ensol.
Heure (°C) (%) (hPa) (km/h) (km/h) (min)
01:00 16.988101500---0
02:00 16.391101500---0
03:00 15.992101500---0
04:00 15.493101500---0
05:00 14.992101500---0
06:00 14.792101500---0
07:00 14.893101500---0
08:00 17.784101500---60
09:00 20.075101500---60
10:00 20.871101503NNO60
11:00 22.764101402NNE60
12:00 25.158101402NE60
13:00 25.955101400---55
14:00 26.753101303NNE30
15:00 28.642101302N60
16:00 29.635101302N60
17:00 30.037101302NNO60
18:00 29.842101302NNO30
19:00 28.755101300---10
20:00 27.059101300---0
21:00 25.265101400---5
22:00 24.064101403NNO0
23:00 22.272101506NNO0
minuit 21.481101600---0

Graphique du 23-06-2019

 

Serveur OMMA